User: anonymous   Login
Location: Unspecified
(0.0000°N, 0.0000°E)
Time: 19:45:35
(UTC+00:00)
Language:

Alouette 2 - Orbit

View from above orbital plane
View from above orbital plane
View from above satellite
View from above satellite

Ground track
Ground track

The orbit data is extracted from the following two-line orbital elements,

1  1804U 65098A   19053.84332741 -.00000034 +00000-0 -11043-4 0  9993
2  1804 079.8047 021.5840 1342827 231.2802 116.0586 12.25364059351828
Epoch (UTC): 22 February 2019 20:14:23
Eccentricity: 0.1342827
inclination: 79.8047°
perigee height: 502 km
apogee height: 2636 km
right ascension of ascending node: 21.5840°
argument of perigee: 231.2802°
revolutions per day: 12.25364059
mean anomaly at epoch: 116.0586°
orbit number at epoch: 35182

The dashed part of the orbit path shows where the satellite is in the earth's shadow,  

DLR